Location: Les Jeannots
(43.2262°N, 5.5774°E)
Time: 08:37:44
(UTC+00:00)

Cosmos 1408 - Pass Details

Date: 05 July 2020
Orbit: 470 x 494 km, 82.6° (Epoch: 04 August)

Event Time Altitude Azimuth Distance (km) Brightness Sun altitude
Exits shadow 23:03:10 30° 280° (W) 880 4.0 -23.5°
Maximum altitude 23:03:16 30° 284° (WNW) 879 4.0 -23.5°
Drops below altitude 10° 23:06:28 10° 347° (NNW) 1,643 6.3 -23.6°
Sets 23:08:45 0° 358° (N) 2,525 7.6 -23.7°
